Theta_e
310 310 310 310 311 309 309 307 307 307 308 309 311 312 313 312 312 312 316 321 314 315 318 319 319 319 320 320 316 319 320 322 323 318 315 315 313 315 314 316 315 314 311 310 313 308 305 322 320 315 321 325 324 325
310 310 310 310 310 310 309 308 306 307 307 308 310 311 311 311 311 312 313 317 316 310 316 321 321 323 322 320 319 317 318 320 321 320 320 318 314 314 315 309 318 312 318 317 317 316 322 324 324 324 325 325 324 324
309 309 309 309 309 309 310 308 307 306 307 308 309 309 310 310 310 310 310 313 314 313 317 318 317 324 325 323 326 319 319 320 324 322 321 319 318 321 311 314 317 319 320 320 319 319 320 322 323 325 326 325 326 326
309 309 309 309 309 309 309 310 308 307 306 307 308 308 309 309 309 309 309 313 310 311 311 315 325 323 327 328 325 324 321 321 320 320 318 320 317 320 319 320 319 321 321 320 319 320 320 321 324 325 325 326 325 326
308 309 309 309 309 309 309 310 309 308 306 306 307 307 308 309 309 310 311 313 313 309 311 313 320 323 326 327 325 325 322 321 321 319 318 318 321 320 322 323 317 321 321 317 315 324 324 323 325 326 324 324 324 324
308 308 308 308 309 309 309 309 310 308 308 306 306 307 308 308 309 310 308 312 314 313 311 310 322 322 321 324 323 321 325 324 324 323 320 321 318 322 316 314 323 323 325 325 323 326 325 326 326 326 325 325 325 324
308 308 308 308 308 308 309 309 310 309 309 308 307 308 308 308 308 306 306 308 308 316 313 311 316 322 320 321 321 322 323 324 324 325 322 322 320 322 320 314 323 324 324 325 327 326 323 325 323 326 325 324 322 323
309 309 309 309 308 308 309 309 309 309 308 308 307 308 308 308 307 306 313 309 310 312 315 311 315 316 319 317 316 324 320 321 321 322 322 322 320 323 316 324 324 324 324 325 325 326 327 327 327 325 325 323 321 320
309 309 309 309 308 309 308 308 309 309 309 308 308 308 308 307 307 311 314 311 313 312 311 314 312 308 319 319 320 319 322 315 322 318 318 319 316 313 319 325 323 324 324 324 325 326 326 325 324 324 323 322 321 320
309 309 308 308 308 308 308 308 309 308 308 307 307 306 306 311 312 312 311 310 311 314 314 311 321 313 317 316 317 316 320 315 310 316 320 314 313 323 323 327 328 326 327 326 322 322 323 323 323 323 322 322 321 321
308 308 308 308 308 308 308 309 307 307 306 305 303 305 310 311 313 313 310 309 311 308 313 313 316 316 320 313 313 320 314 314 308 313 312 311 310 320 327 327 328 329 328 326 326 327 326 326 324 323 322 322 322 320
308 308 308 308 308 308 308 308 307 305 303 302 302 306 307 308 309 307 306 310 308 307 312 310 314 319 318 324 316 317 312 313 305 317 311 307 316 327 325 326 327 328 327 325 327 326 326 326 325 324 322 321 320 317
308 308 308 308 308 308 308 307 306 306 305 307 301 300 304 306 296 300 298 303 306 311 312 312 312 317 319 321 319 315 309 309 317 310 309 314 324 324 326 326 327 328 327 326 325 326 326 325 325 323 322 322 319 318
307 306 306 307 307 306 306 306 306 306 303 297 297 291 300 301 303 304 305 306 313 315 312 312 315 315 319 316 316 309 314 314 307 305 307 316 326 324 326 326 326 325 326 325 325 325 324 323 322 323 323 321 318 316
306 306 306 305 306 306 305 306 306 305 299 296 298 294 301 309 312 312 316 315 317 320 314 311 316 317 314 314 316 312 309 305 307 308 315 323 328 325 325 326 326 326 326 325 325 323 323 323 322 321 320 317 317 317
304 303 303 305 305 306 306 305 305 304 300 297 298 300 308 308 309 309 312 312 315 319 318 314 313 311 309 312 309 307 305 304 309 316 320 327 326 327 327 327 328 328 327 325 325 324 323 320 317 317 317 317 316 316
304 300 305 306 305 305 305 303 302 297 298 298 303 307 306 306 307 310 312 311 315 317 309 312 308 306 314 308 307 311 308 313 317 321 324 329 327 328 330 329 328 328 327 326 325 324 320 319 318 317 315 317 316 318
303 304 306 306 305 304 304 301 299 299 295 299 303 307 311 310 305 308 311 312 313 314 317 312 314 309 306 306 307 314 319 323 325 326 326 328 330 332 330 328 328 328 327 326 324 321 319 318 317 316 318 318 318 318
304 305 304 304 305 302 298 299 299 296 300 306 308 311 312 312 311 311 311 312 315 316 315 316 311 308 309 315 316 318 321 323 323 324 326 330 330 330 329 329 329 328 327 325 322 319 318 319 318 318 318 317 313 315
306 306 306 305 305 299 297 300 305 300 300 307 309 309 311 311 312 309 307 312 314 315 312 312 312 314 314 317 321 320 324 327 324 321 323 326 329 330 329 328 326 327 325 324 321 314 320 320 318 318 315 314 314 315
304 307 307 306 303 301 299 299 301 302 306 305 309 308 307 312 309 310 310 316 315 312 314 316 318 324 326 328 330 329 328 326 324 323 323 323 326 327 327 327 328 325 322 320 319 318 316 319 318 317 316 315 317 320
305 307 306 304 299 301 299 305 305 307 305 307 307 307 306 304 306 309 315 313 312 315 319 322 324 324 328 328 328 330 331 331 330 323 316 318 324 324 325 326 325 323 322 321 321 319 320 320 320 319 317 316 312 316
303 303 302 302 297 296 296 306 301 304 300 303 306 303 304 306 311 317 311 315 316 321 324 323 322 326 328 329 330 330 330 329 325 324 324 325 326 327 327 327 326 323 322 322 322 318 316 309 314 316 317 317 316 315
304 301 298 298 296 293 300 298 304 303 304 300 300 299 303 308 313 307 307 313 318 322 322 324 325 325 327 328 326 327 327 327 326 327 328 326 325 325 326 326 326 325 324 323 318 317 316 316 310 316 316 316 315 313
294 295 295 289 298 294 294 296 298 298 296 299 297 299 304 310 303 304 308 314 317 319 322 323 325 326 323 323 324 326 329 326 324 324 325 325 325 325 325 326 325 326 326 322 319 317 316 317 316 316 316 316 315 314
288 294 292 292 294 293 295 295 296 296 298 297 298 304 307 307 303 304 311 315 318 320 322 325 325 323 321 321 322 323 325 327 327 324 327 327 326 324 322 321 320 321 323 322 318 316 316 316 315 316 315 313 302 313
290 293 298 303 300 300 299 301 303 300 297 297 301 302 303 300 304 310 317 321 319 323 328 328 326 322 322 323 325 327 327 327 327 327 329 328 327 326 323 321 320 322 324 322 318 317 316 315 316 316 316 317 318 316
297 298 295 300 300 302 299 300 299 298 301 304 302 301 302 305 306 315 319 322 321 322 321 323 325 326 325 325 326 326 327 329 329 329 328 328 326 324 321 320 323 306 323 322 320 319 319 320 319 317 317 316 317 317
297 301 300 297 299 299 301 300 300 304 307 304 303 304 306 311 315 318 322 323 322 320 318 319 321 325 325 327 327 327 327 326 324 321 318 316 316 318 320 318 318 319 320 319 296 307 319 320 319 318 317 317 318 318
299 301 298 301 300 299 303 304 304 308 311 310 312 312 311 314 317 323 322 321 320 317 318 319 322 323 322 323 323 325 326 327 325 322 319 317 319 321 320 319 319 320 320 320 318 315 298 311 308 315 314 315 316 318
303 303 303 303 302 305 306 308 309 310 309 309 311 309 309 312 317 319 319 319 318 319 320 319 319 322 322 322 324 324 323 328 329 326 324 323 322 320 321 322 322 321 319 318 317 316 315 314 314 314 316 318 318 315
304 304 304 301 303 308 309 307 306 306 309 308 308 311 311 311 309 313 317 319 319 318 313 318 322 323 326 327 327 328 309 328 328 327 326 324 322 322 323 322 320 319 319 319 318 318 317 316 316 317 318 318 317 317
305 306 307 307 306 306 309 309 307 306 307 306 307 310 311 311 308 315 321 322 323 322 323 326 327 328 328 327 328 326 318 329 316 303 306 306 308 313 321 321 320 320 319 319 319 319 318 318 319 319 318 317 316 315
Wind_Speed
11 11 12 13 11 10 10 7 9 12 13 13 13 13 12 14 15 10 3 1 4 5 8 5 5 7 4 3 3 5 5 2 1 2 5 4 9 5 5 5 6 8 8 6 2 4 6 11 11 5 5 6 10 11
10 11 11 12 13 11 9 9 5 9 12 12 12 13 12 13 14 13 3 1 4 7 8 8 16 17 10 9 7 4 3 3 6 2 1 3 5 4 5 6 3 5 5 2 5 6 5 13 5 6 5 9 9 10
10 11 12 11 12 13 11 10 8 6 10 11 11 12 12 12 12 9 5 5 5 5 8 6 4 3 5 13 7 5 5 1 1 3 5 3 5 2 6 5 6 4 2 2 7 6 8 8 5 6 11 11 11 11
12 12 12 12 12 12 14 10 10 8 7 10 11 11 12 12 12 9 5 3 4 5 6 3 2 3 2 4 7 9 4 3 3 1 3 4 4 4 3 5 3 4 8 6 5 6 7 6 8 10 13 13 13 11
12 12 12 12 12 12 12 13 10 9 8 8 11 11 12 13 12 10 7 5 5 6 6 6 12 0 6 7 7 8 7 5 2 2 2 1 2 4 3 1 5 7 6 6 2 13 2 14 13 14 14 13 12 12
13 13 13 13 13 13 13 13 11 10 9 9 9 11 12 12 11 6 5 1 4 4 5 5 5 2 1 7 7 3 2 3 3 3 4 3 2 4 5 5 6 8 7 5 5 11 6 16 15 14 14 13 11 10
14 14 13 13 13 13 13 13 14 10 10 9 10 9 10 9 8 5 7 4 5 3 5 5 3 5 2 7 4 4 4 1 3 1 2 2 3 4 3 4 9 9 9 9 13 16 14 17 15 14 14 13 10 10
15 15 15 14 14 14 13 13 12 10 10 10 10 10 11 11 11 8 2 16 8 5 4 5 3 5 6 6 5 2 4 4 3 3 1 1 4 2 4 8 8 9 10 12 12 0 14 14 16 15 13 12 11 10
14 14 14 13 12 12 11 12 12 10 11 10 9 13 5 4 5 3 4 11 6 5 5 3 4 6 5 3 3 4 3 3 2 3 3 4 4 5 5 10 11 14 9 14 10 14 17 17 16 15 13 11 10 10
13 12 12 12 12 10 10 11 12 9 10 9 7 5 5 3 6 5 6 7 6 6 5 5 1 4 5 7 3 5 2 3 5 4 3 5 6 4 4 6 10 12 14 17 18 16 16 15 14 13 11 8 9 10
13 12 13 13 12 11 10 10 5 7 9 2 3 1 4 1 4 5 5 6 6 5 6 5 5 3 3 8 7 2 3 4 5 6 5 5 5 7 8 11 13 13 15 13 11 14 13 14 13 12 10 9 11 11
14 14 13 13 12 11 10 6 3 5 2 3 4 4 3 3 5 6 6 5 6 5 6 6 6 4 4 2 4 4 3 4 3 6 5 4 5 8 11 15 14 16 13 13 14 13 12 12 12 11 11 11 12 11
15 15 12 9 9 8 7 5 5 6 7 2 3 3 3 4 4 8 10 6 5 6 5 6 7 6 4 4 3 4 6 3 5 5 4 0 8 9 12 14 16 14 14 15 15 14 14 13 11 11 12 12 12 10
6 3 2 2 6 4 3 4 4 4 2 3 4 4 6 8 7 5 8 7 6 2 2 6 7 5 3 6 3 6 4 5 6 5 5 5 10 12 14 14 16 16 16 16 15 15 14 12 12 12 11 12 10 9
1 1 1 3 3 4 4 3 5 2 2 3 4 5 7 4 0 4 1 4 2 1 4 5 4 5 7 5 2 4 6 6 6 4 3 8 12 14 16 16 17 16 14 14 14 13 13 14 13 12 12 11 9 9
5 3 1 3 5 5 6 5 4 2 3 4 5 5 5 6 4 5 3 5 5 2 3 4 6 5 7 4 7 6 7 6 5 3 6 8 12 14 15 16 16 14 14 13 12 13 13 13 13 13 12 10 9 8
4 0 10 8 6 6 4 1 1 4 3 4 4 3 3 4 5 4 3 5 5 4 6 3 8 7 4 6 7 5 5 5 6 5 6 9 14 16 16 16 15 15 14 14 13 12 12 12 13 12 11 9 9 7
0 0 6 7 2 3 2 1 3 4 4 5 5 4 0 4 1 2 4 5 5 3 3 3 5 7 6 10 9 6 4 6 5 6 7 11 15 15 15 17 16 15 15 13 13 13 12 13 12 9 9 9 8 8
2 3 2 2 2 1 3 4 3 4 6 3 3 4 1 1 4 2 3 4 3 3 4 4 4 7 7 3 3 8 7 7 7 7 10 12 14 16 16 16 15 15 14 14 13 10 10 11 8 8 7 7 7 7
8 8 7 6 3 2 3 3 3 4 4 1 3 3 3 1 2 1 1 4 4 2 5 5 4 1 4 5 2 6 7 8 10 12 11 11 11 15 15 14 11 14 12 13 11 9 10 7 6 6 7 6 5 5
6 4 2 4 3 4 3 3 5 4 4 3 3 5 4 3 4 3 3 4 4 3 4 5 4 3 4 3 2 5 9 10 9 12 16 14 11 12 12 11 13 11 11 10 10 9 8 8 7 8 7 6 3 1
1 2 1 2 3 3 4 5 4 1 3 3 4 4 3 4 5 5 4 5 4 5 3 4 4 5 2 4 6 7 9 10 11 12 12 12 12 11 11 11 11 10 10 9 9 9 7 6 7 7 6 5 3 4
1 2 2 4 4 4 3 1 5 5 5 3 4 3 4 4 3 4 5 4 3 3 3 3 3 4 3 7 10 11 11 13 12 12 12 10 10 10 10 10 10 10 9 9 7 8 7 8 6 7 6 4 5 6
1 3 3 3 6 3 1 3 3 4 4 3 2 2 3 3 4 3 4 3 3 1 4 6 5 7 9 10 9 9 8 10 11 10 10 10 10 10 10 10 9 9 9 9 8 8 9 9 8 7 6 5 7 5
3 4 3 4 2 3 4 4 3 2 3 4 3 4 4 4 3 5 4 4 4 4 5 5 7 9 10 10 8 8 9 9 9 10 8 9 10 10 9 8 8 8 7 9 9 9 9 9 8 7 6 5 3 4
4 5 4 4 3 4 5 4 5 5 3 4 5 3 2 3 5 4 3 4 4 6 7 9 10 10 9 9 11 9 8 8 9 9 8 9 9 10 10 10 9 8 7 8 8 9 9 9 10 9 7 5 4 5
3 4 5 4 3 3 4 2 1 1 3 5 3 3 3 6 4 4 4 2 4 4 5 3 7 8 10 11 9 9 7 7 9 9 8 7 7 9 9 9 10 10 8 8 8 10 10 9 7 6 6 6 6 6
3 3 4 3 3 2 2 3 4 4 2 2 2 3 2 4 4 3 6 7 5 4 4 3 5 8 10 11 10 9 9 9 12 11 9 8 7 6 6 6 9 8 10 10 8 6 4 3 3 5 4 4 5 5
3 2 2 4 3 3 2 1 2 2 1 1 2 2 3 2 1 6 8 7 4 4 6 7 7 8 9 9 8 8 9 10 13 16 15 11 10 7 7 10 9 8 8 7 8 7 1 2 4 5 5 5 3 2
2 1 3 3 3 3 2 1 3 3 1 1 1 2 2 4 5 4 6 7 6 4 4 5 2 7 9 9 9 7 6 8 9 10 10 10 10 10 9 9 8 6 6 6 6 7 4 7 6 6 5 4 3 3
1 3 2 2 3 3 4 3 2 1 3 4 5 4 4 3 6 6 6 5 5 7 4 1 0 4 7 9 9 9 7 4 6 5 6 9 9 10 9 7 7 7 7 7 7 8 8 7 6 5 4 1 3 2
1 2 2 3 2 3 2 4 2 2 3 4 5 5 4 5 5 4 5 5 4 2 4 7 6 5 5 5 6 5 2 8 8 8 7 7 10 10 8 8 8 7 7 7 6 7 7 6 5 4 4 4 5 7
2 2 1 1 4 4 2 3 1 7 5 2 2 2 2 5 8 3 2 3 4 0 3 4 5 5 6 6 7 6 5 6 10 10 9 7 9 9 8 8 8 8 8 6 6 7 7 6 5 4 6 7 7 7
Wind_Direction
324 325 326 334 324 308 314 336 334 334 339 344 345 347 351 359 354 335 322 19 293 301 290 259 280 301 325 360 338 9 239 121 298 186 151 113 150 92 123 76 174 180 197 196 218 254 240 149 150 224 65 143 148 153
316 319 319 320 326 327 308 315 327 326 326 332 332 337 348 350 350 334 269 27 312 260 308 312 279 269 273 281 290 312 76 18 30 287 92 150 128 160 147 153 186 196 349 22 335 38 126 160 53 109 130 135 140 137
312 310 311 310 314 319 316 299 297 320 321 319 325 331 336 338 344 341 307 325 252 263 262 240 238 117 207 235 256 308 40 327 128 10 342 23 99 163 157 141 139 138 145 173 184 124 146 157 122 146 136 131 130 127
307 303 304 306 307 312 319 306 298 296 306 318 317 327 326 330 333 325 293 322 282 286 281 97 218 258 343 174 209 238 322 329 201 144 6 322 107 299 74 92 248 35 166 158 95 129 129 163 156 134 125 123 120 116
303 301 300 296 298 302 307 310 281 287 292 301 311 319 322 323 325 297 269 254 255 293 331 311 309 212 209 193 207 202 227 236 97 154 206 36 75 167 64 188 170 189 142 210 45 149 233 155 150 145 138 135 128 123
297 297 297 298 294 295 300 304 301 289 284 286 303 304 314 320 323 285 216 174 223 225 274 276 34 205 189 181 188 203 307 350 53 280 103 111 62 278 191 202 90 134 126 25 114 143 117 139 146 148 136 134 126 117
294 292 291 292 293 291 291 299 304 278 287 282 301 290 297 303 294 276 348 23 329 233 251 269 221 127 185 158 149 150 195 109 328 118 79 85 127 277 236 198 136 134 115 117 119 117 120 145 146 138 132 120 122 114
289 287 286 283 283 285 283 293 302 284 291 285 302 286 288 285 268 258 193 212 226 264 258 270 238 185 193 177 154 173 167 176 39 59 110 179 154 248 242 108 133 143 134 139 150 237 142 133 136 135 134 139 138 132
290 290 286 285 291 282 276 286 293 283 289 288 301 294 271 220 224 23 115 133 204 295 293 244 253 153 178 136 99 150 227 183 70 194 167 236 147 214 228 166 166 160 160 146 138 119 132 143 141 144 149 153 143 139
290 288 285 285 285 291 275 277 283 283 289 298 274 221 193 108 83 175 198 172 202 198 223 260 322 206 225 175 130 142 212 149 191 101 141 232 225 110 152 168 154 160 145 146 136 140 143 145 152 153 155 148 144 145
292 287 284 280 275 266 272 283 255 283 262 231 241 271 2 78 217 219 188 214 175 216 204 230 242 208 176 203 147 301 164 161 209 130 239 183 229 162 153 144 148 144 151 154 140 144 152 154 152 150 145 144 142 143
289 284 281 271 268 270 274 209 229 255 254 356 305 287 290 231 226 207 192 189 216 217 165 213 180 233 126 284 173 176 170 197 195 138 215 226 111 125 151 144 144 150 144 124 131 135 135 139 141 144 142 145 144 137
285 285 279 264 260 262 188 196 218 281 275 232 224 236 204 182 211 209 183 185 195 171 174 184 171 177 159 225 106 180 183 165 132 195 214 181 116 142 146 144 142 143 131 126 125 125 127 128 134 143 141 141 140 144
318 335 320 136 126 128 186 201 222 204 260 246 229 214 223 181 218 197 186 174 83 134 186 198 160 197 158 183 150 177 71 173 200 215 209 158 148 149 153 149 148 143 139 135 134 133 131 134 134 136 139 143 147 146
31 28 226 146 185 208 206 200 187 212 268 251 234 229 215 253 152 112 123 143 62 2 194 189 180 222 170 151 188 116 178 200 210 211 127 105 141 153 157 154 149 145 141 140 138 135 135 137 140 138 142 146 146 145
0 281 18 19 321 230 187 180 196 198 247 233 233 266 243 175 150 103 107 105 12 328 208 255 173 201 177 179 181 186 185 197 152 138 99 131 145 153 155 152 146 143 143 138 135 136 139 144 142 138 144 145 150 155
322 17 302 273 222 131 131 250 184 231 258 255 222 225 283 55 78 71 58 39 336 250 196 201 183 182 112 202 192 173 194 124 117 120 116 136 152 152 149 143 142 141 135 134 135 139 140 140 138 146 152 159 151 158
249 4 25 99 123 151 146 234 268 258 246 248 260 161 178 122 95 292 26 18 338 4 280 10 335 206 196 181 198 149 118 110 87 108 122 140 146 146 144 141 139 136 134 136 139 141 145 145 152 157 160 169 177 172
318 304 303 304 315 271 222 205 215 263 227 175 259 211 194 271 148 303 326 350 329 309 306 249 246 217 208 209 177 151 151 155 134 118 124 138 146 143 140 136 135 136 138 141 148 153 148 166 161 159 169 164 182 173
277 268 259 243 197 246 249 215 215 271 268 185 228 212 237 17 81 217 358 301 266 199 233 217 248 181 234 182 247 175 143 130 139 131 132 138 142 140 141 142 140 139 140 146 154 152 147 158 163 161 147 157 155 171
257 117 148 161 195 224 284 292 217 226 294 263 210 220 234 231 247 229 201 218 209 230 236 238 279 31 2 330 272 133 142 161 160 153 147 142 154 141 145 138 147 149 148 156 156 150 176 166 157 148 157 176 182 249
173 235 257 163 245 223 248 231 264 308 263 272 214 204 230 233 227 209 187 201 222 232 250 314 347 334 82 121 126 126 121 119 113 111 110 128 141 148 149 155 158 157 157 161 165 158 171 165 162 156 169 144 182 142
360 199 237 209 226 223 250 283 248 203 217 190 186 199 206 220 211 160 220 204 246 245 265 305 333 278 116 120 119 122 133 132 127 128 144 137 142 143 149 156 161 158 157 161 159 151 145 128 152 171 149 178 174 156
114 236 235 224 198 230 182 233 222 267 188 157 250 227 220 218 163 208 232 190 197 188 199 191 187 149 130 132 116 119 125 119 122 123 132 139 141 147 155 160 158 155 157 150 158 140 148 165 148 178 178 175 183 185
229 217 221 240 241 227 226 212 200 204 255 169 221 223 220 191 190 218 207 149 170 187 170 163 188 168 136 119 113 115 133 132 130 132 139 140 136 145 149 155 152 132 145 160 162 166 168 163 194 188 184 212 184 200
217 209 214 210 215 219 225 191 192 193 207 186 219 247 197 192 209 203 134 143 159 162 162 179 159 135 136 125 127 127 127 128 136 129 135 141 153 149 149 152 150 153 167 161 162 171 173 183 191 195 211 199 161 268
246 243 211 214 247 253 247 237 217 152 206 217 174 172 211 216 157 107 122 116 130 139 144 182 143 133 133 123 112 119 125 136 133 130 138 148 149 150 159 163 169 145 167 159 162 160 164 174 187 196 223 218 222 205
237 250 256 312 257 233 256 212 197 227 220 140 216 222 347 24 85 100 121 112 115 114 100 75 95 121 124 122 125 122 114 117 116 122 123 115 115 112 109 108 109 141 160 162 160 169 169 201 230 210 214 246 185 193
257 233 264 259 245 247 260 239 222 208 166 247 251 158 112 71 348 126 126 113 78 69 83 92 98 114 120 125 126 128 137 142 145 146 143 139 141 136 133 129 151 157 149 148 66 25 336 229 194 170 162 159 161 212
249 248 276 296 307 324 15 293 298 333 6 348 266 128 76 71 48 76 103 89 97 64 50 55 65 153 140 136 134 140 140 146 161 156 154 155 146 142 151 154 157 162 166 155 143 126 113 148 145 152 150 155 208 260
167 224 269 306 359 325 346 342 283 325 18 40 26 61 71 103 75 47 51 39 57 48 41 6 198 178 155 149 147 153 135 143 121 124 154 152 138 148 152 141 143 141 143 141 149 152 153 166 147 146 151 76 67 328
324 317 351 57 69 314 333 17 20 21 7 55 24 14 25 85 69 31 357 12 45 173 217 236 202 164 149 145 158 131 170 148 156 151 153 162 147 150 149 145 143 141 142 139 141 140 154 151 151 186 145 106 106 104
336 350 303 243 126 160 191 233 143 109 88 44 38 63 28 52 59 41 344 299 297 234 152 128 123 129 117 114 112 115 126 109 70 74 69 84 134 153 157 154 148 152 156 159 156 147 169 173 169 135 115 123 125 114